Regional Weather Roundup
Issued by NWS

Home | Current Version | Previous Version | Graphics & Text | Print | Product List | Glossary On
Versions: 1 2 3 4 5 6 7 8 9 10 11 12 13 14 15 16 17 18 19 20 21 22 23 24 25 26 27 28 29 30 31 32 33 34 35 36 37 38 39 40 41 42 43 44 45 46 47 48 49 50
000
ASUS43 KIND 271809
RWRIN

WEATHER ROUNDUP FOR INDIANA
NATIONAL WEATHER SERVICE INDIANAPOLIS IN
200 PM EDT MON MAR 27 2017

NOTE: "FAIR" INDICATES FEW OR NO CLOUDS BELOW 12,000 FEET WITH NO
SIGNIFICANT WEATHER AND/OR OBSTRUCTIONS TO VISIBILITY.

* - STATION DOES NOT REPORT WEATHER SUCH AS PRECIPITATION OR FOG.

+ - STATION NOT QUALITY CONTROLLED BY THE NATIONAL WEATHER SERVICE.
    USE DATA WITH CAUTION...ESPECIALLY DEWPOINT AND RELATIVE
    HUMIDITY OBSERVATIONS.

INZ001>003-010>013-019-020-271900-
NORTHWEST INDIANA

CITY           SKY/WX    TMP DP  RH WIND       PRES   REMARKS
GARY /AIRPORT/ CLOUDY    46  43  87 NE7       29.96S FOG
KNOX *+        CLOUDY    54  34  47 SW5       29.94F
LA PORTE +     CLOUDY    52  49  87 S5        29.94F
6HR MIN TEMP:  48; 6HR MAX TEMP:  53;

MICHIGAN CITY+ CLOUDY    48  48 100 NW5       29.95F
MONTICELLO +   CLOUDY    56  51  82 S3        29.93F
6HR MIN TEMP:  49; 6HR MAX TEMP:  56;

RENSSELAER +   DRIZZLE   55  52  88 SE3       29.94F
VALPARAISO     CLOUDY    55  50  83 S9        29.94F
6HR MIN TEMP:  50; 6HR MAX TEMP:  55;


$$

LMZ046-743>745-271900-
SOUTHERN LAKE MICHIGAN

STATION/POSITION TIME  TEMP    WIND        PRES    WAVE
                       AIR SEA DIR/SP/G            HT
                 (UTC) (F)     (DEG/KT/KT) (MB)    (FT)
BURNS HARBOR     1740   41      60/  7/  8 1014.6F
MICHIGAN CITY    1740   40      30/  5/  6   N/A

$$

INZ004-005-014>016-021>024-271900-
NORTH CENTRAL INDIANA

CITY           SKY/WX    TMP DP  RH WIND       PRES   REMARKS
ELKHART        CLOUDY    55  48  76 SW6       29.93F
GOSHEN         CLOUDY    56  48  74 S10       29.94S
6HR MIN TEMP:  50; 6HR MAX TEMP:  57;

LOGANSPORT +   CLOUDY    57  52  82 S6        29.94F
PERU/GRISSOM   CLOUDY    58  54  86 S6        29.93S
6HR MIN TEMP:  50; 6HR MAX TEMP:  58;

ROCHESTER +    CLOUDY    57  50  77 S5        29.95S
SOUTH BEND     CLOUDY    53  49  86 SW5       29.94S
6HR MIN TEMP:  49; 6HR MAX TEMP:  53;

WARSAW +       CLOUDY    55  46  71 S6        29.94F

$$

INZ006>009-017-018-025>027-271900-
NORTHEAST INDIANA

CITY           SKY/WX    TMP DP  RH WIND       PRES   REMARKS
ANGOLA *+      CLOUDY    55  46  71 SW3       29.93S
AUBURN +       CLOUDY    57  46  67 SW5       29.95F
FORT WAYNE     CLOUDY    58  49  72 W3        29.95F
6HR MIN TEMP:  51; 6HR MAX TEMP:  58;

HUNTINGTON +   CLOUDY    58  50  76 SW6       29.95F
6HR MIN TEMP:  50; 6HR MAX TEMP:  58;

KENDALLVILLE + CLOUDY    55  49  79 SW6       29.94S

$$

INZ028-029-035-036-043>045-051>053-271900-
WEST CENTRAL INDIANA

CITY           SKY/WX    TMP DP  RH WIND       PRES   REMARKS
CRAWFORDSVL +  CLOUDY    59  52  76 E7        29.89F
6HR MIN TEMP:  46; 6HR MAX TEMP:  60;

GREENCASTLE +  CLOUDY    59  50  72 E6        29.89F
LAFAYETTE      CLOUDY    58  52  80 E7        29.91F
6HR MIN TEMP:  47; 6HR MAX TEMP:  58; 6HR PCP:  0.01;

TERRE HAUTE    LGT RAIN  58  51  78 E5        29.90F
6HR MIN TEMP:  44; 6HR MAX TEMP:  61; 6HR PCP:  0.02;


$$

INZ030>032-037>040-046>048-054>057-064-065-271900-
CENTRAL INDIANA

CITY           SKY/WX    TMP DP  RH WIND       PRES   REMARKS
CP ATTERBURY + CLOUDY    59  50  72 E7        29.91F
COLUMBUS       PTSUNNY   64  54  68 E9        29.92F
FRANKFORT +    MOSUNNY   64  55  71 SE6       29.93F
6HR MIN TEMP:  50; 6HR MAX TEMP:  64;

GREENWOOD *+   CLOUDY    61  51  70 E6        29.92F
6HR MIN TEMP:  47; 6HR MAX TEMP:  62;

INDIANAPOLIS   CLOUDY    61  50  67 SE10      29.89F
6HR MIN TEMP:  47; 6HR MAX TEMP:  64;

-EAGLE CREEK   CLOUDY    63  49  60 S8        29.90F
6HR MIN TEMP:  49; 6HR MAX TEMP:  64;

KOKOMO +       CLOUDY    59  52  77 S7        29.94F
6HR MIN TEMP:  50; 6HR MAX TEMP:  59;

MARION +       CLOUDY    58  51  77 SW5       29.95F
MT COMFORT *+  CLOUDY    61  52  72 SE12      29.93F
SHELBYVILLE    CLOUDY    62  50  64 E9        29.90F
6HR MIN TEMP:  46; 6HR MAX TEMP:  63;

ZIONSVILLE +   CLOUDY    61  51  69 SE6       29.93F
6HR MIN TEMP:  50; 6HR MAX TEMP:  62;


$$

INZ033-034-041-042-049-050-058-059-271900-
EAST CENTRAL INDIANA

CITY           SKY/WX    TMP DP  RH WIND       PRES   REMARKS
MUNCIE         CLOUDY    63  50  62 SW7G17    29.94F
6HR MIN TEMP:  52; 6HR MAX TEMP:  64;

RICHMOND +     PTSUNNY   59  50  72 S13       29.97F

$$

INZ060-061-067>069-081>083-085>088-271900-
SOUTHWEST INDIANA

CITY           SKY/WX    TMP DP  RH WIND       PRES   REMARKS
EVANSVILLE     PTSUNNY   66  57  72 S8        29.88F
6HR MIN TEMP:  49; 6HR MAX TEMP:  66; 6HR PCP:  0.17;

HUNTINGBURG *+ CLOUDY    63  57  81 SE9       29.90F
6HR MIN TEMP:  46; 6HR MAX TEMP:  63; 6HR PCP:  0.04;

WASHINGTON +   CLOUDY    59  54  85 MISG      29.88F
                                      6HR PCP:  0.02;


$$

INZ062-063-066-070>080-084-089>092-271900-
SOUTH CENTRAL AND SOUTHEAST INDIANA

CITY           SKY/WX    TMP DP  RH WIND       PRES   REMARKS
BEDFORD +      CLOUDY    59  50  72 E10       29.89F
BLOOMINGTON    CLOUDY    58  50  75 SE9       29.89S
6HR MIN TEMP:  42; 6HR MAX TEMP:  60; 6HR PCP:  0.01;

MADISON *+     CLOUDY    61  54  77 SE8       29.94F
NORTH VERNON + CLOUDY    59  54  82 E6        29.92F
SEYMOUR +      CLOUDY    63  52  67 E7        29.92F

$$




USA.gov is the U.S. government's official web portal to all federal, state and local government web resources and services.